West Palm Beach, FL

5:48 PM EST on January 18, 2017 (GMT -0500)
Palm Beach International

Weather History for KPBI - October, 2012

Change the Weather History Date:

Wednesday, October 3, 2012

  Actual Average Record
Temperature  
Mean Temperature 84 °F 80 °F  
Max Temperature 90 °F 87 °F 93 °F (1988)
Min Temperature 77 °F 74 °F 60 °F (1929)
Degree Days  
Heating Degree Days 0 0  
Month to date heating degree days 0 0  
Since 1 July heating degree days 0 0  
Cooling Degree Days 19 15  
Month to date cooling degree days 53 47  
Year to date cooling degree days 3470 3255  
Growing Degree Days 32 (Base 50)    
Moisture  
Dew Point 76 °F    
Average Humidity 79    
Maximum Humidity 94    
Minimum Humidity 63    
Precipitation  
Precipitation T in 0.21 in 3.12 in (1899)
Month to date precipitation 1.62 0.62  
Year to date precipitation 69.02 49.69  
Snow  
Snow 0.00 in - - ()
Month to date snowfall 0.0  
Since 1 July snowfall 0.0  
Since 1 September snowfall 0.0  
Snow Depth 0.00 in    
Sea Level Pressure  
Sea Level Pressure 30.09 in    
Wind  
Wind Speed 7 mph (SE)    
Max Wind Speed 16 mph    
Max Gust Speed 20 mph    
Visibility 10 miles    
Events      
T = Trace of Precipitation, MM = Missing Value Source: NWS Daily Summary

Daily Weather History Graph

Daily Weather History Graph

Search for Another Location

Airport or City:

Trip Planner

Search our weather history database for the weather conditions in past years. The results will help you decide how hot, cold, wet, or windy it might be!

Date:

Astronomy

Oct. 03, 2012 Rise Set
Actual Time 7:14 AM EDT 7:04 PM EDT
Civil Twilight 6:50 AM EDT 7:27 PM EDT
Nautical Twilight 6:24 AM EDT 7:54 PM EDT
Astronomical Twilight 5:57 AM EDT 8:20 PM EDT
Moon 9:18 PM EDT (10/3) 10:13 AM EDT (10/3)
Length of Visible Light 12h 36m
Length of Day
11h 49m
Waning Gibbous, 89% of the Moon is Illuminated
Oct 3
Waning Gibbous
Oct 8
Last Quarter
Oct 15
New
Oct 21
First Quarter
Oct 29
Full

Hourly Weather History & Observations

Time (EDT) Temp. Heat Index Dew Point Humidity Pressure Visibility Wind Dir Wind Speed Gust Speed Precip Events Conditions
12:53 AM 77.0 °F - 73.9 °F 90% 30.05 in 10.0 mi SSE 3.5 mph - N/A   Mostly Cloudy
1:33 AM 77.0 °F - 73.4 °F 89% 30.06 in 10.0 mi ESE 4.6 mph - N/A   Mostly Cloudy
1:53 AM 78.1 °F - 73.9 °F 87% 30.06 in 10.0 mi SSE 4.6 mph - N/A   Overcast
2:00 AM 78.8 °F - 73.4 °F 83% 30.06 in 10.0 mi SSE 4.6 mph - N/A   Overcast
2:53 AM 78.1 °F - 75.0 °F 90% 30.05 in 10.0 mi Calm Calm - 0.00 in   Mostly Cloudy
3:53 AM 78.1 °F - 75.0 °F 90% 30.05 in 10.0 mi Calm Calm - N/A   Overcast
4:53 AM 77.0 °F - 75.0 °F 94% 30.06 in 10.0 mi Calm Calm - N/A   Mostly Cloudy
5:53 AM 78.1 °F - 75.9 °F 93% 30.07 in 10.0 mi Calm Calm - N/A   Mostly Cloudy
6:53 AM 78.1 °F - 73.9 °F 87% 30.08 in 10.0 mi South 4.6 mph - N/A   Mostly Cloudy
7:53 AM 80.1 °F 85.1 °F 75.0 °F 85% 30.09 in 10.0 mi SE 4.6 mph - N/A   Mostly Cloudy
8:53 AM 82.9 °F 90.2 °F 75.0 °F 77% 30.11 in 10.0 mi SE 6.9 mph - N/A   Scattered Clouds
9:53 AM 84.9 °F 93.3 °F 75.0 °F 72% 30.12 in 10.0 mi SE 10.4 mph - N/A   Scattered Clouds
10:50 AM 84.2 °F 94.1 °F 77.0 °F 79% 30.12 in 10.0 mi SE 9.2 mph - N/A   Mostly Cloudy
10:53 AM 84.9 °F 95.3 °F 77.0 °F 77% 30.12 in 10.0 mi ESE 10.4 mph - N/A   Mostly Cloudy
11:53 AM 86.0 °F 96.9 °F 77.0 °F 74% 30.12 in 10.0 mi SE 10.4 mph - N/A   Mostly Cloudy
12:53 PM 88.0 °F 100.2 °F 77.0 °F 70% 30.11 in 10.0 mi ESE 10.4 mph - N/A   Mostly Cloudy
1:53 PM 88.0 °F 98.5 °F 75.9 °F 67% 30.10 in 10.0 mi SSE 13.8 mph 18.4 mph 0.00 in   Mostly Cloudy
2:53 PM 88.0 °F 100.2 °F 77.0 °F 70% 30.09 in 10.0 mi ESE 8.1 mph - N/A   Mostly Cloudy
3:29 PM 87.8 °F 97.6 °F 75.2 °F 66% 30.08 in 10.0 mi SE 12.7 mph - N/A   Mostly Cloudy
3:53 PM 88.0 °F 98.5 °F 75.9 °F 67% 30.08 in 10.0 mi ESE 12.7 mph - N/A   Mostly Cloudy
4:53 PM 87.1 °F 97.3 °F 75.9 °F 69% 30.09 in 10.0 mi SE 11.5 mph - N/A   Scattered Clouds
5:53 PM 87.1 °F 95.4 °F 73.9 °F 65% 30.09 in 10.0 mi SE 11.5 mph - N/A   Scattered Clouds
6:53 PM 84.9 °F 95.3 °F 77.0 °F 77% 30.09 in 10.0 mi ESE 12.7 mph - N/A   Scattered Clouds
7:53 PM 84.0 °F 93.7 °F 77.0 °F 79% 30.09 in 10.0 mi ESE 6.9 mph - N/A   Scattered Clouds
8:53 PM 84.0 °F 92.6 °F 75.9 °F 76% 30.13 in 10.0 mi ESE 6.9 mph - N/A   Scattered Clouds
9:53 PM 84.0 °F 93.7 °F 77.0 °F 79% 30.14 in 10.0 mi East 4.6 mph - N/A   Partly Cloudy
10:53 PM 82.9 °F 91.8 °F 77.0 °F 82% 30.16 in 10.0 mi East 5.8 mph - N/A   Scattered Clouds
11:53 PM 82.9 °F 91.8 °F 77.0 °F 82% 30.17 in 10.0 mi ESE 5.8 mph - N/A   Mostly Cloudy